contact:dominique.lefevre@mio.osupytheas.fr, maurice.libes@osupytheas.fr, didier.mallarino@osupytheas.fr
Project:EMSO http://www.emso-fr.org/EMSO-France
Depth: 2436.0 m
Title:EMSO Ligure Ouest : Data MII capteur AQUADOPP
Date,Latitude,Longitude,X_East,Y_North,Z_Up,Amplitude_X,Amplitude_Y,Amplitude_Z,Batterie,SoundSpeed,Heading,Pitch,Roll,Pressure,TIS,Speed,Direction
, degrees North, degrees East, m.s-1, m.s-1,m.s-1, 1, 1, 1, Volt, m.s-1, degree, degree, degree, dbar, degree_C, m.s-1, degree
2021-04-12T00:04:03,42.805,6.029,0.017,-0.034,0.015,103.0,100.0,102.0,13.3,1505.2,324.0,-0.7,1.8,2468.946,13.28,0.038,153.4
2021-04-12T00:07:03,42.805,6.029,0.036,-0.032,0.006,102.0,103.0,100.0,13.4,1505.2,325.6,-0.8,1.8,2468.925,13.28,0.048,131.6
2021-04-12T00:10:03,42.805,6.029,0.025,-0.021,0.002,103.0,101.0,101.0,13.4,1505.2,325.0,-0.7,1.8,2468.907,13.28,0.032,130.0
2021-04-12T00:13:03,42.805,6.029,0.002,-0.033,0.003,104.0,102.0,100.0,13.4,1505.2,324.0,-0.7,1.8,2468.845,13.28,0.033,176.5
2021-04-12T00:16:03,42.805,6.029,0.023,-0.009,0.04,101.0,102.0,101.0,13.3,1505.2,323.8,-0.8,1.8,2468.878,13.28,0.024,111.4
2021-04-12T00:19:03,42.805,6.029,0.028,-0.036,-0.024,103.0,103.0,100.0,13.3,1505.2,324.1,-0.7,1.8,2468.89,13.28,0.045,142.1
2021-04-12T00:22:03,42.805,6.029,0.019,-0.002,0.013,103.0,103.0,100.0,13.3,1505.2,324.2,-0.8,1.8,2468.895,13.28,0.019,96.0
2021-04-12T00:25:03,42.805,6.029,0.01,-0.02,0.028,103.0,102.0,100.0,13.3,1505.2,326.7,-0.7,1.8,2468.888,13.28,0.022,153.4
2021-04-12T00:28:03,42.805,6.029,0.017,-0.036,-0.014,102.0,103.0,101.0,13.3,1505.2,324.0,-0.7,1.9,2468.866,13.28,0.039,154.7
2021-04-12T00:31:03,42.805,6.029,0.018,-0.051,0.003,102.0,103.0,100.0,13.3,1505.2,324.2,-0.7,1.8,2468.842,13.28,0.054,160.6
2021-04-12T00:34:03,42.805,6.029,0.008,-0.029,-0.006,102.0,102.0,100.0,13.4,1505.2,328.4,-0.7,1.9,2468.836,13.28,0.03,164.6
2021-04-12T00:37:03,42.805,6.029,0.025,-0.05,-0.025,103.0,102.0,100.0,13.4,1505.2,328.6,-0.7,1.8,2468.862,13.28,0.055,153.4
2021-04-12T00:40:03,42.805,6.029,0.029,-0.041,0.015,103.0,104.0,99.0,13.3,1505.2,328.8,-0.7,1.8,2468.849,13.28,0.05,144.7
2021-04-12T00:43:03,42.805,6.029,0.018,-0.038,0.027,103.0,102.0,101.0,13.3,1505.2,326.5,-0.7,1.8,2468.864,13.28,0.042,154.7
2021-04-12T00:46:03,42.805,6.029,0.016,-0.028,-0.001,103.0,102.0,101.0,13.4,1505.2,327.0,-0.8,1.8,2468.875,13.28,0.032,150.3
2021-04-12T00:49:03,42.805,6.029,0.007,-0.043,-0.049,102.0,103.0,101.0,13.3,1505.2,325.9,-0.8,1.8,2468.877,13.28,0.043,170.8
2021-04-12T00:52:03,42.805,6.029,0.012,-0.024,-0.006,105.0,104.0,100.0,13.4,1505.2,325.2,-0.7,1.8,2468.831,13.28,0.026,153.4
2021-04-12T00:55:03,42.805,6.029,0.041,-0.025,0.002,104.0,103.0,101.0,13.3,1505.2,326.2,-0.8,1.8,2468.824,13.28,0.048,121.4
2021-04-12T00:58:03,42.805,6.029,0.033,-0.044,0.0,105.0,104.0,100.0,13.3,1505.2,326.7,-0.7,1.8,2468.832,13.28,0.055,143.1
2021-04-12T01:04:03,42.805,6.029,0.013,-0.034,-0.018,104.0,103.0,102.0,13.4,1505.2,327.8,-0.7,1.8,2468.885,13.28,0.036,159.1
2021-04-12T01:07:03,42.805,6.029,0.019,-0.021,-0.014,103.0,105.0,101.0,13.4,1505.2,325.6,-0.7,1.8,2468.852,13.28,0.028,137.9
2021-04-12T01:10:03,42.805,6.029,0.045,-0.044,-0.008,103.0,103.0,102.0,13.3,1505.2,326.4,-0.8,1.8,2468.813,13.28,0.062,134.4
2021-04-12T01:13:03,42.805,6.029,0.036,-0.037,-0.006,104.0,104.0,102.0,13.4,1505.2,326.2,-0.8,1.8,2468.818,13.28,0.051,135.8
2021-04-12T01:16:03,42.805,6.029,0.013,-0.023,0.035,104.0,104.0,102.0,13.4,1505.2,327.9,-0.7,1.8,2468.829,13.28,0.026,150.5
2021-04-12T01:19:03,42.805,6.029,0.03,-0.027,-0.002,104.0,104.0,103.0,13.4,1505.2,328.7,-0.8,1.8,2468.819,13.28,0.04,132.0
2021-04-12T01:22:03,42.805,6.029,0.041,-0.052,-0.01,104.0,104.0,103.0,13.4,1505.2,324.6,-0.8,1.8,2468.875,13.28,0.066,141.7
2021-04-12T01:25:03,42.805,6.029,0.029,-0.043,-0.031,103.0,103.0,102.0,13.3,1505.2,328.1,-0.7,1.8,2468.829,13.28,0.051,146.0
2021-04-12T01:28:03,42.805,6.029,0.033,-0.043,0.008,106.0,104.0,103.0,13.4,1505.2,328.4,-0.7,1.8,2468.85,13.28,0.054,142.5
2021-04-12T01:31:03,42.805,6.029,0.025,-0.028,0.025,105.0,105.0,102.0,13.4,1505.2,325.7,-0.8,1.8,2468.814,13.28,0.037,138.2
2021-04-12T01:34:03,42.805,6.029,0.007,-0.028,0.0,105.0,105.0,102.0,13.4,1505.2,326.9,-0.8,1.8,2468.82,13.28,0.028,166.0
2021-04-12T01:37:03,42.805,6.029,0.01,-0.03,-0.035,105.0,105.0,101.0,13.3,1505.2,324.3,-0.8,1.8,2468.846,13.28,0.031,161.6
2021-04-12T01:40:03,42.805,6.029,0.026,-0.027,0.001,105.0,104.0,102.0,13.3,1505.2,328.6,-0.7,1.8,2468.792,13.28,0.037,136.1
2021-04-12T01:43:03,42.805,6.029,0.029,-0.025,-0.007,105.0,105.0,102.0,13.3,1505.2,327.6,-0.8,1.8,2468.762,13.28,0.038,130.8
2021-04-12T01:46:03,42.805,6.029,0.012,-0.043,-0.028,106.0,106.0,102.0,13.4,1505.2,326.5,-0.8,1.8,2468.802,13.28,0.044,164.4
2021-04-12T01:49:03,42.805,6.029,0.025,-0.059,-0.04,104.0,104.0,103.0,13.4,1505.2,327.6,-0.7,1.8,2468.795,13.28,0.064,157.0
2021-04-12T01:52:03,42.805,6.029,0.011,-0.05,0.005,105.0,104.0,103.0,13.3,1505.2,326.9,-0.8,1.8,2468.833,13.28,0.051,167.6
2021-04-12T01:55:03,42.805,6.029,0.01,-0.037,0.015,108.0,104.0,102.0,13.4,1505.2,327.3,-0.8,1.8,2468.747,13.28,0.038,164.9
2021-04-12T01:58:03,42.805,6.029,0.002,-0.032,0.001,107.0,106.0,103.0,13.3,1505.2,325.1,-0.7,1.8,2468.803,13.28,0.032,176.4
2021-04-12T02:04:03,42.805,6.029,0.005,-0.052,0.012,106.0,105.0,103.0,13.4,1505.2,327.0,-0.8,1.8,2468.832,13.28,0.052,174.5
2021-04-12T02:07:03,42.805,6.029,0.025,-0.029,-0.003,107.0,106.0,103.0,13.4,1505.2,324.6,-0.8,1.8,2468.805,13.28,0.038,139.2
2021-04-12T02:10:03,42.805,6.029,0.007,-0.034,0.003,107.0,107.0,104.0,13.4,1505.2,325.0,-0.7,1.8,2468.861,13.28,0.034,168.4
2021-04-12T02:13:03,42.805,6.029,-0.003,-0.006,-0.025,106.0,105.0,103.0,13.3,1505.2,325.3,-0.7,1.8,2468.891,13.28,0.006,206.6
2021-04-12T02:16:03,42.805,6.029,-0.023,-0.039,0.004,106.0,106.0,102.0,13.4,1505.2,328.9,-0.8,1.8,2468.899,13.28,0.045,210.5
2021-04-12T02:19:03,42.805,6.029,0.002,-0.042,0.022,106.0,107.0,102.0,13.4,1505.2,325.3,-0.8,1.8,2468.946,13.28,0.042,177.3
2021-04-12T02:22:03,42.805,6.029,0.001,-0.048,-0.013,109.0,107.0,102.0,13.4,1505.2,326.8,-0.7,1.8,2468.922,13.28,0.048,178.8
2021-04-12T02:25:03,42.805,6.029,0.004,-0.032,-0.014,106.0,106.0,103.0,13.4,1505.2,323.2,-0.8,1.8,2468.968,13.28,0.032,172.9
2021-04-12T02:28:03,42.805,6.029,0.022,-0.058,0.001,106.0,104.0,103.0,13.3,1505.2,324.4,-0.8,1.8,2468.979,13.28,0.062,159.2
2021-04-12T02:31:03,42.805,6.029,-0.003,-0.03,-0.004,107.0,106.0,102.0,13.4,1505.2,326.5,-0.7,1.8,2469.067,13.28,0.03,185.7
2021-04-12T02:34:03,42.805,6.029,0.02,-0.043,0.016,105.0,104.0,103.0,13.4,1505.2,326.7,-0.8,1.8,2469.058,13.28,0.047,155.1
2021-04-12T02:37:03,42.805,6.029,0.012,-0.041,0.009,107.0,106.0,103.0,13.3,1505.2,327.6,-0.7,1.8,2469.102,13.28,0.042,163.7
2021-04-12T02:40:03,42.805,6.029,0.002,-0.053,-0.019,105.0,105.0,103.0,13.4,1505.2,326.0,-0.8,1.8,2469.116,13.28,0.053,177.8
2021-04-12T02:43:03,42.805,6.029,-0.003,-0.018,-0.021,105.0,104.0,102.0,13.4,1505.2,326.0,-0.8,1.8,2469.132,13.28,0.018,189.5
2021-04-12T02:46:03,42.805,6.029,-0.015,-0.057,-0.001,105.0,105.0,101.0,13.3,1505.2,325.0,-0.7,1.8,2469.146,13.28,0.058,194.7
2021-04-12T02:49:03,42.805,6.029,-0.005,-0.045,-0.027,105.0,105.0,102.0,13.4,1505.2,324.5,-0.8,1.8,2469.158,13.28,0.045,186.3
2021-04-12T02:52:03,42.805,6.029,-0.002,-0.036,0.001,105.0,105.0,102.0,13.4,1505.2,327.4,-0.7,1.9,2469.206,13.28,0.036,183.2
2021-04-12T02:55:03,42.805,6.029,0.011,-0.055,-0.019,105.0,104.0,103.0,13.3,1505.2,327.3,-0.8,1.9,2469.201,13.28,0.056,168.7
2021-04-12T02:58:03,42.805,6.029,0.0,-0.04,-0.03,104.0,105.0,101.0,13.3,1505.2,326.7,-0.7,1.8,2469.185,13.28,0.04,180.0
2021-04-12T03:04:03,42.805,6.029,0.018,-0.053,0.002,105.0,104.0,102.0,13.4,1505.2,328.1,-0.8,1.8,2469.297,13.28,0.055,161.2
2021-04-12T03:07:03,42.805,6.029,-0.008,-0.028,-0.02,105.0,105.0,101.0,13.4,1505.2,327.1,-0.8,1.8,2469.292,13.28,0.029,195.9
2021-04-12T03:10:03,42.805,6.029,0.018,-0.049,0.02,107.0,105.0,101.0,13.4,1505.2,327.1,-0.8,1.8,2469.32,13.28,0.052,159.8
2021-04-12T03:13:03,42.805,6.029,-0.004,-0.032,-0.019,106.0,104.0,101.0,13.4,1505.2,326.1,-0.7,1.8,2469.273,13.28,0.032,187.1
2021-04-12T03:16:03,42.805,6.029,-0.005,-0.057,-0.035,104.0,104.0,101.0,13.4,1505.2,327.3,-0.8,1.8,2469.332,13.28,0.057,185.0
2021-04-12T03:19:03,42.805,6.029,0.008,-0.04,-0.018,106.0,104.0,101.0,13.4,1505.2,324.9,-0.8,1.8,2469.304,13.28,0.04,168.7
2021-04-12T03:22:03,42.805,6.029,0.012,-0.049,0.027,105.0,105.0,101.0,13.4,1505.2,325.3,-0.8,1.8,2469.41,13.28,0.05,166.2
2021-04-12T03:25:03,42.805,6.029,-0.011,-0.042,-0.004,105.0,105.0,102.0,13.4,1505.2,328.0,-0.7,1.8,2469.381,13.28,0.043,194.7
2021-04-12T03:28:03,42.805,6.029,-0.006,-0.034,-0.023,106.0,104.0,101.0,13.4,1505.2,325.4,-0.7,1.8,2469.405,13.28,0.034,190.0
2021-04-12T03:31:03,42.805,6.029,-0.02,-0.023,0.015,106.0,105.0,102.0,13.4,1505.2,326.0,-0.8,1.8,2469.441,13.28,0.03,221.0
2021-04-12T03:34:03,42.805,6.029,-0.021,-0.042,-0.027,105.0,104.0,101.0,13.4,1505.2,324.6,-0.7,1.8,2469.467,13.28,0.046,206.6
2021-04-12T03:37:03,42.805,6.029,-0.006,-0.02,-0.001,105.0,104.0,104.0,13.4,1505.2,324.5,-0.7,1.8,2469.501,13.28,0.02,196.7
2021-04-12T03:40:03,42.805,6.029,0.002,-0.043,-0.022,105.0,104.0,102.0,13.3,1505.2,328.4,-0.7,1.8,2469.494,13.28,0.043,177.3
2021-04-12T03:43:03,42.805,6.029,0.004,-0.032,-0.004,105.0,106.0,103.0,13.4,1505.2,323.9,-0.8,1.8,2469.558,13.28,0.032,172.9
2021-04-12T03:46:03,42.805,6.029,0.011,-0.051,-0.03,104.0,106.0,101.0,13.4,1505.2,327.3,-0.8,1.8,2469.582,13.28,0.052,167.8
2021-04-12T03:49:03,42.805,6.029,0.009,-0.036,0.004,104.0,103.0,102.0,13.4,1505.2,324.9,-0.8,1.8,2469.607,13.28,0.037,166.0
2021-04-12T03:52:03,42.805,6.029,0.012,-0.025,0.012,106.0,105.0,101.0,13.3,1505.2,324.8,-0.7,1.8,2469.635,13.28,0.027,154.4
2021-04-12T03:55:03,42.805,6.029,0.003,-0.009,-0.003,104.0,105.0,101.0,13.4,1505.2,326.4,-0.7,1.8,2469.683,13.28,0.009,161.6
2021-04-12T03:58:03,42.805,6.029,0.015,-0.048,0.003,105.0,105.0,102.0,13.4,1505.2,325.9,-0.8,1.8,2469.712,13.28,0.05,162.6
2021-04-12T04:04:03,42.805,6.029,-0.01,-0.061,-0.02,104.0,106.0,101.0,13.4,1505.2,327.4,-0.7,1.9,2469.775,13.28,0.061,189.3
2021-04-12T04:07:03,42.805,6.029,-0.01,-0.043,-0.01,106.0,104.0,102.0,13.4,1505.2,327.5,-0.8,1.8,2469.784,13.28,0.044,193.1
2021-04-12T04:10:03,42.805,6.029,0.012,-0.039,-0.001,104.0,105.0,101.0,13.4,1505.2,327.8,-0.7,1.8,2469.864,13.28,0.04,162.9
2021-04-12T04:13:03,42.805,6.029,-0.011,-0.017,0.021,103.0,103.0,102.0,13.4,1505.2,325.4,-0.7,1.8,2469.838,13.28,0.02,212.9
2021-04-12T04:16:03,42.805,6.029,-0.008,-0.058,-0.019,103.0,102.0,101.0,13.4,1505.2,326.5,-0.8,1.9,2469.841,13.28,0.058,187.8
2021-04-12T04:19:03,42.805,6.029,-0.026,-0.046,-0.022,104.0,103.0,101.0,13.4,1505.2,325.5,-0.8,1.8,2469.918,13.28,0.052,209.5
2021-04-12T04:22:03,42.805,6.029,-0.008,-0.022,0.008,105.0,103.0,101.0,13.4,1505.2,325.8,-0.7,1.8,2469.912,13.28,0.023,200.0
2021-04-12T04:25:03,42.805,6.029,0.011,-0.055,-0.002,103.0,102.0,101.0,13.4,1505.2,327.1,-0.8,1.8,2469.951,13.28,0.056,168.7
2021-04-12T04:28:03,42.805,6.029,0.005,-0.055,0.002,104.0,104.0,101.0,13.3,1505.2,324.0,-0.7,1.8,2470.021,13.28,0.055,174.8
2021-04-12T04:31:03,42.805,6.029,0.005,-0.016,0.017,104.0,104.0,100.0,13.3,1505.2,326.0,-0.7,1.8,2470.015,13.28,0.016,162.6
2021-04-12T04:34:03,42.805,6.029,-0.011,-0.039,-0.014,104.0,103.0,103.0,13.4,1505.2,326.9,-0.7,1.8,2470.009,13.28,0.04,195.7
2021-04-12T04:37:03,42.805,6.029,-0.013,-0.037,0.004,104.0,104.0,101.0,13.4,1505.2,325.1,-0.8,1.9,2470.043,13.28,0.039,199.4
2021-04-12T04:40:03,42.805,6.029,-0.009,-0.056,0.003,104.0,105.0,101.0,13.3,1505.2,325.2,-0.7,1.8,2470.106,13.28,0.056,189.1
2021-04-12T04:43:03,42.805,6.029,-0.015,-0.022,0.004,105.0,104.0,102.0,13.4,1505.2,325.3,-0.7,1.8,2470.082,13.28,0.026,214.3
2021-04-12T04:46:03,42.805,6.029,-0.018,-0.044,0.012,103.0,104.0,100.0,13.4,1505.2,325.0,-0.8,1.8,2470.108,13.28,0.047,202.2
2021-04-12T04:49:03,42.805,6.029,0.001,-0.052,0.007,104.0,104.0,101.0,13.4,1505.2,327.8,-0.8,1.8,2470.123,13.28,0.052,178.9
2021-04-12T04:52:03,42.805,6.029,0.0,-0.024,-0.024,104.0,104.0,101.0,13.4,1505.2,325.8,-0.8,1.8,2470.126,13.28,0.024,180.0
2021-04-12T04:55:03,42.805,6.029,-0.003,-0.047,0.003,103.0,104.0,101.0,13.4,1505.2,328.6,-0.8,1.8,2470.164,13.28,0.047,183.6
2021-04-12T04:58:03,42.805,6.029,0.006,-0.046,0.011,105.0,104.0,101.0,13.4,1505.2,327.2,-0.7,1.8,2470.17,13.28,0.046,172.6
2021-04-12T05:04:03,42.805,6.029,0.005,-0.045,0.006,105.0,104.0,102.0,13.4,1505.2,323.8,-0.8,1.8,2470.244,13.28,0.045,173.7
2021-04-12T05:07:03,42.805,6.029,0.01,-0.036,-0.021,102.0,103.0,101.0,13.4,1505.2,324.0,-0.7,1.8,2470.211,13.28,0.037,164.5
2021-04-12T05:10:03,42.805,6.029,-0.018,-0.044,-0.018,103.0,103.0,101.0,13.4,1505.2,327.1,-0.8,1.9,2470.199,13.28,0.047,202.2
2021-04-12T05:13:03,42.805,6.029,-0.003,-0.038,0.019,105.0,103.0,101.0,13.3,1505.2,327.8,-0.7,1.8,2470.185,13.28,0.038,184.5
2021-04-12T05:16:03,42.805,6.029,-0.025,-0.02,-0.001,104.0,104.0,103.0,13.3,1505.2,327.4,-0.7,1.8,2470.197,13.28,0.032,231.3
2021-04-12T05:19:03,42.805,6.029,-0.001,-0.036,-0.014,103.0,104.0,101.0,13.4,1505.2,327.6,-0.8,1.8,2470.202,13.28,0.036,181.6
2021-04-12T05:22:03,42.805,6.029,0.0,-0.047,-0.006,104.0,103.0,101.0,13.3,1505.2,325.4,-0.8,1.8,2470.216,13.28,0.047,180.0
2021-04-12T05:25:03,42.805,6.029,-0.023,-0.038,-0.022,104.0,104.0,101.0,13.3,1505.2,327.8,-0.7,1.8,2470.207,13.28,0.044,211.2
2021-04-12T05:28:03,42.805,6.029,-0.012,-0.049,-0.017,104.0,104.0,102.0,13.3,1505.2,327.1,-0.7,1.8,2470.217,13.28,0.05,193.8
2021-04-12T05:31:03,42.805,6.029,-0.017,-0.035,-0.025,105.0,103.0,101.0,13.4,1505.2,326.3,-0.7,1.8,2470.191,13.28,0.038,205.9
2021-04-12T05:34:03,42.805,6.029,-0.019,-0.033,-0.015,104.0,102.0,101.0,13.3,1505.2,326.7,-0.8,1.8,2470.224,13.28,0.038,209.9
2021-04-12T05:37:03,42.805,6.029,-0.033,-0.036,-0.017,103.0,104.0,101.0,13.4,1505.2,327.5,-0.7,1.8,2470.186,13.28,0.048,222.5
2021-04-12T05:40:03,42.805,6.029,-0.011,-0.037,0.01,105.0,103.0,101.0,13.4,1505.2,327.2,-0.8,1.8,2470.204,13.28,0.038,196.6
2021-04-12T05:43:03,42.805,6.029,-0.001,-0.028,0.031,103.0,103.0,100.0,13.4,1505.2,327.6,-0.8,1.8,2470.209,13.28,0.028,182.0
2021-04-12T05:46:03,42.805,6.029,-0.037,-0.027,-0.013,103.0,103.0,101.0,13.4,1505.2,327.1,-0.7,1.8,2470.25,13.28,0.045,233.9
2021-04-12T05:49:03,42.805,6.029,-0.017,-0.047,-0.006,104.0,102.0,101.0,13.3,1505.2,327.3,-0.7,1.8,2470.234,13.28,0.049,199.9
2021-04-12T05:52:03,42.805,6.029,-0.009,-0.036,-0.015,104.0,104.0,100.0,13.4,1505.2,327.5,-0.8,1.8,2470.265,13.28,0.037,194.0
2021-04-12T05:55:03,42.805,6.029,-0.006,-0.031,0.004,103.0,104.0,102.0,13.4,1505.2,327.2,-0.7,1.8,2470.275,13.28,0.031,191.0
2021-04-12T05:58:03,42.805,6.029,-0.021,-0.047,-0.014,104.0,104.0,100.0,13.4,1505.2,327.4,-0.8,1.8,2470.205,13.28,0.051,204.1
2021-04-12T06:04:03,42.805,6.029,-0.008,-0.025,-0.004,103.0,103.0,102.0,13.4,1505.2,327.5,-0.8,1.8,2470.225,13.28,0.026,197.7
2021-04-12T06:07:03,42.805,6.029,-0.029,-0.035,-0.007,104.0,103.0,101.0,13.4,1505.2,327.8,-0.7,1.9,2470.298,13.28,0.045,219.6
2021-04-12T06:10:03,42.805,6.029,-0.014,-0.033,-0.015,104.0,102.0,101.0,13.4,1505.2,325.7,-0.7,1.8,2470.906,13.28,0.035,203.0
2021-04-12T06:13:03,42.805,6.029,-0.011,-0.034,-0.024,103.0,103.0,101.0,13.4,1505.2,326.2,-0.7,1.8,2470.989,13.28,0.035,197.9
2021-04-12T06:16:03,42.805,6.029,0.002,-0.05,-0.018,102.0,103.0,100.0,13.4,1505.2,325.5,-0.8,1.8,2471.125,13.28,0.05,177.7
2021-04-12T06:19:03,42.805,6.029,-0.002,-0.036,0.001,103.0,102.0,100.0,13.3,1505.2,325.3,-0.7,1.8,2471.164,13.28,0.036,183.2
2021-04-12T06:22:03,42.805,6.029,-0.028,-0.043,-0.025,103.0,102.0,100.0,13.4,1505.2,325.0,-0.8,1.9,2471.129,13.28,0.051,213.1
2021-04-12T06:25:03,42.805,6.029,-0.005,-0.017,-0.012,103.0,102.0,101.0,13.4,1505.2,327.3,-0.8,1.8,2471.013,13.28,0.017,196.4
2021-04-12T06:28:03,42.805,6.029,-0.01,-0.03,0.011,103.0,103.0,101.0,13.3,1505.2,323.6,-0.7,1.9,2470.986,13.28,0.031,198.4
2021-04-12T06:31:03,42.805,6.029,-0.032,-0.036,0.007,102.0,101.0,101.0,13.4,1505.2,323.9,-0.7,1.8,2470.952,13.28,0.048,221.6
2021-04-12T06:34:03,42.805,6.029,-0.017,-0.018,-0.014,103.0,101.0,101.0,13.4,1505.2,324.6,-0.7,1.9,2470.897,13.28,0.024,223.4
2021-04-12T06:37:03,42.805,6.029,-0.013,-0.027,-0.018,103.0,103.0,101.0,13.4,1505.2,328.4,-0.7,1.8,2470.794,13.28,0.029,205.7
2021-04-12T06:40:03,42.805,6.029,-0.027,-0.029,0.017,103.0,103.0,99.0,13.4,1505.2,323.8,-0.7,1.8,2470.689,13.28,0.039,223.0
2021-04-12T06:43:03,42.805,6.029,-0.013,-0.039,-0.035,103.0,103.0,99.0,13.4,1505.2,324.7,-0.7,1.8,2470.62,13.28,0.041,198.4
2021-04-12T06:46:03,42.805,6.029,-0.013,-0.035,0.009,104.0,103.0,100.0,13.4,1505.2,324.5,-0.7,1.8,2470.469,13.28,0.037,200.4
2021-04-12T06:49:03,42.805,6.029,-0.013,-0.035,-0.011,103.0,102.0,100.0,13.4,1505.2,327.4,-0.7,1.8,2470.254,13.28,0.037,200.4
2021-04-12T06:52:03,42.805,6.029,-0.032,-0.022,-0.009,103.0,103.0,100.0,13.4,1505.2,325.2,-0.8,1.8,2470.168,13.28,0.038,235.5
2021-04-12T06:55:03,42.805,6.029,-0.032,-0.041,-0.019,104.0,101.0,100.0,13.3,1505.2,327.7,-0.8,1.8,2470.04,13.28,0.052,218.0
2021-04-12T06:58:03,42.805,6.029,-0.017,-0.027,-0.002,105.0,101.0,102.0,13.4,1505.2,327.5,-0.7,1.8,2469.955,13.28,0.031,212.2
2021-04-12T07:04:03,42.805,6.029,-0.005,-0.057,-0.003,102.0,103.0,100.0,13.4,1505.2,324.1,-0.7,1.8,2469.516,13.28,0.057,185.0
2021-04-12T07:07:03,42.805,6.029,-0.001,-0.019,-0.009,104.0,102.0,100.0,13.4,1505.2,327.6,-0.8,1.8,2469.407,13.28,0.019,183.0
2021-04-12T07:10:03,42.805,6.029,-0.023,-0.023,-0.014,104.0,104.0,101.0,13.4,1505.2,327.5,-0.7,1.8,2469.443,13.28,0.032,225.0
2021-04-12T07:13:03,42.805,6.029,-0.01,-0.024,-0.004,103.0,103.0,101.0,13.3,1505.2,323.8,-0.8,1.8,2469.27,13.28,0.026,202.6
2021-04-12T07:16:03,42.805,6.029,-0.022,-0.032,0.01,104.0,103.0,100.0,13.4,1505.2,326.5,-0.7,1.8,2469.28,13.28,0.038,214.5
2021-04-12T07:19:03,42.805,6.029,-0.024,-0.052,0.007,103.0,102.0,101.0,13.4,1505.2,323.8,-0.8,1.8,2469.206,13.28,0.057,204.8
2021-04-12T07:22:03,42.805,6.029,-0.02,-0.036,-0.005,103.0,103.0,100.0,13.4,1505.2,325.6,-0.7,1.8,2469.161,13.28,0.041,209.1
2021-04-12T07:25:03,42.805,6.029,-0.013,-0.018,0.001,103.0,102.0,101.0,13.4,1505.2,328.2,-0.8,1.8,2469.07,13.28,0.022,215.8
2021-04-12T07:28:03,42.805,6.029,-0.013,-0.019,-0.01,103.0,104.0,101.0,13.4,1505.2,326.2,-0.8,1.8,2469.006,13.28,0.023,214.4
2021-04-12T07:31:03,42.805,6.029,-0.024,-0.025,-0.004,102.0,104.0,100.0,13.4,1505.2,325.0,-0.8,1.8,2468.99,13.28,0.034,223.8
2021-04-12T07:34:03,42.805,6.029,-0.008,-0.038,-0.013,103.0,103.0,100.0,13.4,1505.2,323.2,-0.8,1.8,2468.861,13.28,0.038,191.9
2021-04-12T07:37:03,42.805,6.029,-0.031,-0.014,0.006,103.0,103.0,100.0,13.4,1505.2,327.8,-0.8,1.8,2468.701,13.28,0.034,245.7
2021-04-12T07:40:03,42.805,6.029,-0.025,-0.015,-0.001,103.0,103.0,101.0,13.4,1505.2,328.3,-0.8,1.8,2468.627,13.29,0.029,239.0
2021-04-12T07:43:03,42.805,6.029,-0.024,-0.024,0.014,103.0,103.0,103.0,13.3,1505.2,328.7,-0.7,1.8,2468.633,13.29,0.033,225.0
2021-04-12T07:46:03,42.805,6.029,-0.024,-0.007,-0.015,105.0,103.0,101.0,13.4,1505.2,326.7,-0.7,1.8,2468.592,13.29,0.025,253.7
2021-04-12T07:49:03,42.805,6.029,-0.019,-0.027,-0.006,104.0,103.0,99.0,13.3,1505.2,326.6,-0.8,1.8,2468.462,13.29,0.033,215.1
2021-04-12T07:52:03,42.805,6.029,-0.01,-0.014,-0.002,103.0,102.0,100.0,13.3,1505.2,325.9,-0.7,1.8,2468.422,13.29,0.017,215.5
2021-04-12T07:55:03,42.805,6.029,-0.029,-0.019,-0.017,103.0,104.0,101.0,13.4,1505.2,324.5,-0.8,1.8,2468.349,13.29,0.034,236.8
2021-04-12T07:58:03,42.805,6.029,-0.032,-0.025,0.028,102.0,102.0,101.0,13.3,1505.2,324.5,-0.8,1.8,2468.21,13.29,0.04,232.0
2021-04-12T08:04:03,42.805,6.029,-0.039,-0.023,0.015,103.0,103.0,100.0,13.4,1505.2,324.8,-0.8,1.8,2468.164,13.28,0.045,239.5
2021-04-12T08:07:03,42.805,6.029,-0.026,-0.019,0.001,103.0,103.0,100.0,13.4,1505.2,325.1,-0.8,1.8,2468.069,13.28,0.032,233.8
2021-04-12T08:10:03,42.805,6.029,-0.016,-0.018,-0.015,101.0,103.0,102.0,13.4,1505.2,328.2,-0.8,1.8,2468.147,13.28,0.024,221.6
2021-04-12T08:13:03,42.805,6.029,-0.018,-0.024,0.004,104.0,103.0,101.0,13.4,1505.2,328.2,-0.8,1.9,2468.064,13.28,0.03,216.9
2021-04-12T08:16:03,42.805,6.029,-0.012,0.002,0.002,104.0,103.0,101.0,13.3,1505.2,328.8,-0.7,1.9,2467.893,13.29,0.012,279.5
2021-04-12T08:19:03,42.805,6.029,-0.029,-0.012,-0.014,103.0,104.0,100.0,13.4,1505.2,327.0,-0.7,1.8,2467.825,13.29,0.031,247.5
2021-04-12T08:22:03,42.805,6.029,0.002,-0.03,0.008,103.0,104.0,99.0,13.3,1505.2,329.3,-0.8,1.8,2467.743,13.29,0.03,176.2
2021-04-12T08:25:03,42.805,6.029,-0.025,-0.032,-0.021,103.0,104.0,100.0,13.4,1505.2,326.6,-0.8,1.8,2467.557,13.29,0.04,218.0
2021-04-12T08:28:03,42.805,6.029,-0.008,-0.015,-0.001,101.0,103.0,100.0,13.4,1505.2,327.3,-0.7,1.9,2467.4,13.29,0.017,208.1
2021-04-12T08:31:03,42.805,6.029,-0.007,-0.01,0.027,105.0,103.0,101.0,13.4,1505.2,327.8,-0.7,1.9,2467.216,13.29,0.012,215.0
2021-04-12T08:34:03,42.805,6.029,-0.023,-0.025,0.003,104.0,104.0,100.0,13.4,1505.2,326.7,-0.8,1.8,2467.159,13.29,0.033,222.6
2021-04-12T08:37:03,42.805,6.029,-0.018,-0.027,-0.006,103.0,102.0,101.0,13.3,1505.2,326.9,-0.8,1.8,2467.198,13.29,0.032,213.7
2021-04-12T08:40:03,42.805,6.029,-0.008,-0.028,0.012,104.0,102.0,102.0,13.4,1505.2,327.1,-0.7,1.8,2467.188,13.29,0.029,195.9
2021-04-12T08:43:03,42.805,6.029,-0.01,-0.004,-0.004,103.0,103.0,101.0,13.3,1505.2,324.8,-0.7,1.8,2467.273,13.29,0.01,248.2
2021-04-12T08:46:03,42.805,6.029,-0.028,-0.012,-0.035,102.0,103.0,101.0,13.3,1505.2,325.3,-0.8,1.8,2467.271,13.29,0.03,246.8
2021-04-12T08:49:03,42.805,6.029,0.006,-0.013,0.001,105.0,103.0,102.0,13.4,1505.2,324.9,-0.8,1.8,2467.175,13.29,0.014,155.2
2021-04-12T08:52:03,42.805,6.029,-0.025,-0.02,0.0,104.0,104.0,100.0,13.4,1505.2,326.5,-0.8,1.8,2467.171,13.29,0.032,231.3
2021-04-12T08:55:03,42.805,6.029,-0.014,-0.019,-0.016,104.0,103.0,101.0,13.4,1505.2,327.2,-0.8,1.8,2467.124,13.29,0.023,216.4
2021-04-12T08:58:03,42.805,6.029,-0.001,-0.015,0.002,103.0,103.0,101.0,13.3,1505.2,326.9,-0.7,1.8,2467.144,13.29,0.015,183.8
2021-04-12T09:01:03,42.805,6.029,0.006,-0.03,0.0,104.0,104.0,101.0,13.4,1505.2,323.6,-0.7,1.8,2467.12,13.29,0.03,168.7
2021-04-12T09:04:03,42.805,6.029,0.012,-0.024,-0.011,103.0,103.0,100.0,13.4,1505.2,324.0,-0.7,1.8,2467.129,13.29,0.026,153.4
2021-04-12T09:07:03,42.805,6.029,-0.02,0.008,0.027,103.0,103.0,101.0,13.3,1505.2,324.7,-0.8,1.8,2467.09,13.29,0.021,291.8
2021-04-12T09:10:03,42.805,6.029,-0.015,-0.005,-0.008,104.0,102.0,100.0,13.4,1505.2,325.7,-0.8,1.8,2467.125,13.29,0.015,251.6
2021-04-12T09:13:03,42.805,6.029,0.015,-0.025,-0.011,103.0,102.0,101.0,13.4,1505.2,324.5,-0.8,1.8,2467.171,13.29,0.029,149.0
2021-04-12T09:16:03,42.805,6.029,0.013,-0.004,0.033,103.0,103.0,101.0,13.3,1505.2,327.5,-0.7,1.8,2467.167,13.29,0.013,107.1
2021-04-12T09:19:03,42.805,6.029,-0.024,-0.015,0.017,102.0,102.0,100.0,13.4,1505.2,326.7,-0.7,1.8,2467.121,13.29,0.028,238.0
2021-04-12T09:22:03,42.805,6.029,-0.018,-0.015,-0.009,102.0,102.0,100.0,13.4,1505.2,326.6,-0.8,1.8,2467.122,13.29,0.023,230.2
2021-04-12T09:25:03,42.805,6.029,-0.013,-0.013,0.045,102.0,103.0,100.0,13.4,1505.2,326.9,-0.8,1.8,2467.093,13.29,0.018,225.0
2021-04-12T09:28:03,42.805,6.029,-0.013,-0.022,-0.013,103.0,102.0,100.0,13.4,1505.2,327.4,-0.7,1.8,2467.113,13.29,0.025,210.6
2021-04-12T09:31:03,42.805,6.029,-0.028,-0.012,-0.019,103.0,102.0,100.0,13.4,1505.2,324.4,-0.8,1.8,2467.111,13.29,0.03,246.8
2021-04-12T09:34:03,42.805,6.029,-0.005,-0.011,0.012,105.0,103.0,101.0,13.4,1505.2,326.6,-0.8,1.8,2467.138,13.29,0.012,204.4
2021-04-12T09:37:03,42.805,6.029,0.002,-0.008,0.021,102.0,103.0,102.0,13.3,1505.2,328.1,-0.8,1.8,2467.127,13.29,0.008,166.0
2021-04-12T09:40:03,42.805,6.029,-0.005,-0.015,0.006,104.0,103.0,99.0,13.3,1505.2,328.6,-0.7,1.8,2467.108,13.29,0.015,198.4
2021-04-12T09:43:03,42.805,6.029,0.006,-0.028,0.017,101.0,105.0,101.0,13.4,1505.2,326.3,-0.7,1.8,2467.106,13.29,0.028,167.9
2021-04-12T09:46:03,42.805,6.029,-0.012,-0.025,0.01,105.0,102.0,99.0,13.3,1505.2,325.5,-0.8,1.8,2467.12,13.29,0.027,205.6
2021-04-12T09:49:03,42.805,6.029,-0.001,-0.021,0.03,102.0,104.0,100.0,13.4,1505.2,325.2,-0.8,1.8,2467.14,13.29,0.021,182.7